Miscellaneous Local Product
Issued by NWS North Platte, NE

Home | Current Version | Previous Version | Text Only | Print | Product List | Glossary On
Versions: 1 2 3 4 5 6 7 8 9 10 11 12 13 14 15 16 17 18 19 20 21 22 23 24 25 26 27 28 29 30 31 32 33 34 35 36 37 38 39 40 41 42 43 44 45 46 47 48 49 50
000
AXUS43 KLBF 271210
MISLBF


WESTERN AND NORTH CENTRAL NEBRASKA HOURLY WEATHER ROUNDUP
NATIONAL WEATHER SERVICE NORTH PLATTE NE
700 AM CDT WED AUG 27 2014

***STATIONS NOT REPORTING VARIABLES SUCH AS SKY/WEATHER OR
PRESSURE ARE PROVIDED BY THE NEBRASKA DEPARTMENT OF
ROADS...RAWS...AND APRS NETWORKS...AND ARE NOT UNDER
NATIONAL WEATHER SERVICE QUALITY CONTROL***

...OBSERVATIONS IN AND NEAR THE EASTERN PANHANDLE OF NEBRASKA...

CITY           SKY/WX    TMP DP  RH WIND       PRES   REMARKS
PINE RIDGE     MOCLDY    60  60 100 MISG      30.13S
CHADRON        CLOUDY    62  59  90 NE5       30.12S
ALLIANCE       MOCLDY    60  59  96 N7        30.13R FOG
SIDNEY         PTCLDY    60  57  89 SE7       30.14R
WHITECLAY        N/A     60  59  95 N3          N/A
RUSHVILLE        N/A     61  58  91 E10         N/A
GORDON           N/A     66  66  99 W5          N/A
CRESCENT LAKE    N/A     63  61  93 CALM        N/A
LISCO            N/A     68  63  83 E6          N/A
BIG SPRINGS      N/A     65  62  91 CALM        N/A
$$

...OBSERVATIONS IN NORTH CENTRAL NEBRASKA...

CITY           SKY/WX    TMP DP  RH WIND       PRES   REMARKS
VALENTINE      CLOUDY    68  67  96 E5        30.11F
THEDFORD       MOCLDY    67  67  99 NE7       30.10F
AINSWORTH      DRIZZLE   66  65  96 CALM      30.12R
O`NEILL        TSTM      69  67  94 S3        30.13R
ORD            CLOUDY    67  66  97 E7        30.11R
BROKEN BOW     CLOUDY    69  67  93 E8        30.08F FOG
BROWNLEE         N/A     70  67  93 E9          N/A
SPRINGVIEW       N/A     67  65  93 CALM        N/A
ROSE             N/A     68  68  99 CALM        N/A
NEWPORT          N/A     67  67  99 E6          N/A
SARGENT          N/A     67  66  98 CALM        N/A
COMSTOCK         N/A     73  73  99 E7          N/A
CHAMBERS         N/A     64  63  96 CALM        N/A
$$

...OBSERVATIONS IN SOUTHWEST NEBRASKA AND FAR NORTHEAST COLORADO...

CITY           SKY/WX    TMP DP  RH WIND       PRES   REMARKS
WRAY             N/A     63  63 100 SE6       30.13S
HOLYOKE        FAIR      63  61  94 SE7       30.11S
IMPERIAL       PTCLDY    62  61  96 SE9       30.11S
OGALLALA       PTCLDY    59  58  97 CALM      30.10R
NORTH PLATTE   MOCLDY    67  63  87 E9        30.09R
MCCOOK         CLOUDY    67  65  93 SE7       30.12R
LEXINGTON      CLOUDY    68  67  96 S6        30.08R
PAXTON           N/A     65  63  93 CALM        N/A
SUTHERLAND       N/A     67  64  90 S3          N/A
BRADY            N/A     65  63  93 CALM        N/A
GOTHENBURG       N/A     67  63  88 S6          N/A
CALLAWAY         N/A     66  65  98 NE7         N/A
$$

...SOME WEATHER OBSERVATIONS FROM AROUND THE REGION...

CITY           SKY/WX    TMP DP  RH WIND       PRES   REMARKS
DENVER         CLOUDY    59  56  89 S9        30.15S
LARAMIE        LGT RAIN  52  48  86 CALM      30.26S
CHEYENNE       CLOUDY    57  53  86 N6        30.20F
SCOTTSBLUFF    MOCLDY    61  60  97 N3        30.11F
RAPID CITY     MOCLDY    57  53  86 N7        30.14R
PIERRE         CLOUDY    60  59  96 E8        30.10S
WINNER         CLOUDY    68  65  90 SE8       30.11R
SIOUX FALLS    MOCLDY    61  56  83 E5        30.16R
OMAHA          MOCLDY    69  64  84 SE7       30.10R
GRAND ISLAND   LGT RAIN  69  66  90 E5        30.10F FOG
KANSAS CITY    CLOUDY    73  72  96 N16       30.11R
WICHITA        MOCLDY    71  66  84 CALM      30.09R
HAYS           CLOUDY    70  64  83 W8        30.13R
LIBERAL        CLOUDY    66  61  82 SE12      30.15R
GOODLAND       CLOUDY    64  63  96 SE8       30.14F
$$



USA.gov is the U.S. government's official web portal to all federal, state and local government web resources and services.